HORIZONS-3E

Last updated on Sat Jun 20 2026 00:03:06 GMT+0000 (Coordinated Universal Time)

1 43633U 18074B 26170.71254007 -.00000036 00000+0 00000+0 0 9999 2 43633 0.0197 132.1360 0000639 148.8720 52.4420 1.00272022 28364
UTC large
Height (km)
Speed (km/s)
/
Latitude / Longitude
Inclination (degrees)
Orbital Period (minutes)
Azimuth
Elevation
Range (km)
Doppler Factor

Next 0 passes for location: London (51.5072 / 0.1276)

Sorry there are no passes over London.
HORIZONS-3E